Location: Corcelles
(46.1547°N, 4.7234°E)
Time: 08:42:09
(UTC+00:00)

Gbstr 26 Del rocket - Pass Details

Date: 14 July 2020
Orbit: 493 x 1264 km, 51.8° (Epoch: 14 August)

Event Time Altitude Azimuth Distance (km) Brightness Sun altitude
Rises 01:37:35 0° 296° (WNW) 2,651 6.3 -17.7°
Reaches altitude 10° 01:39:40 10° 300° (WNW) 1,815 5.5 -17.6°
Maximum altitude 01:43:43 67° 23° (NNE) 660 3.4 -17.2°
Drops below altitude 10° 01:48:34 10° 107° (ESE) 2,160 6.0 -16.8°
Sets 01:51:13 0° 110° (ESE) 3,209 6.9 -16.6°
